This demonstration page uses our WeatherBlox Daily Observations layout. Learn more.

Left ArrowRight Arrow

Hourly Observations for July 12, 2018

Temp ( °F °C ) Dew Point ( °F °C ) Humidity (%) Winds ( mph kmh ) Pressure ( in mb ) Visibility ( mi km ) Precip ( " mm )
12:51 am 00:51 Clear 73 22.8 66 18.9 79 79 ESE 3 6 29.91 1013 10 16.0934 N/A
1:51 am 01:51 Clear 71 21.7 66 18.9 84 84 ENE 7 11 29.92 1013 10 16.0934 N/A
2:51 am 02:51 Mostly Clear 70 21.1 68 20 93 93 E 5 7 29.93 1014 10 16.0934 N/A
3:51 am 03:51 Clear 70 21.1 65 18.3 84 84 ESE 7 11 29.93 1014 10 16.0934 N/A
4:51 am 04:51 Clear 70 21.1 65 18.3 84 84 ESE 6 9 29.93 1014 10 16.0934 N/A
5:51 am 05:51 Mostly Sunny 70 21.1 67 19.4 90 90 E 3 6 29.95 1014 10 16.0934 N/A
6:51 am 06:51 Mostly Sunny 73 22.8 65 18.3 76 76 SE 7 11 29.96 1015 10 16.0934 N/A
7:51 am 07:51 Mostly Sunny 76 24.4 65 18.3 69 69 ESE 6 9 29.98 1015 10 16.0934 N/A
8:51 am 08:51 Mostly Sunny 78 25.6 65 18.3 64 64 SE 7 11 30 1016 10 16.0934 N/A
9:51 am 09:51 Sunny 80 26.7 65 18.3 60 60 VRB 5 7 29.98 1015 10 16.0934 N/A
10:51 am 10:51 Sunny 85 29.4 64 17.8 50 50 N N/A 29.96 1015 10 16.0934 N/A
11:51 am 11:51 Sunny 87 30.6 61 16.1 42 42 N N/A 29.93 1014 10 16.0934 N/A
12:51 pm 12:51 Sunny 92 33.3 61 16.1 36 36 NNE 7 11 29.89 1012 10 16.0934 N/A
1:51 pm 13:51 Partly Cloudy 92 33.3 60 15.6 34 34 VRB 6 9 29.87 1011 10 16.0934 N/A
2:36 pm 14:36 Mostly Cloudy with Nearby Thunderstorms 91 33 57 14 32 32 VRB 3 6 29.71 1006 10 16.0934 N/A
2:51 pm 14:51 Cloudy with Nearby Thunderstorms 87 30.6 62 16.7 43 43 WSW 26 43 29.86 1011 6 9.65604 N/A
2:59 pm 14:59 Cloudy with Thunderstorms 86 30 61 16.1 43 43 W 21 33 29.8 1009 7 11.26538 N/A
3:16 pm 15:16 Partly Cloudy with Nearby Thunderstorms 88 31 57 14 35 35 WSW 17 28 29.74 1007 10 16.0934 N/A
3:47 pm 15:47 Sunny 88 31 57 14 35 35 WSW 6 9 29.74 1007 10 16.0934 N/A
3:51 pm 15:51 Mostly Sunny 88 31.1 57 13.9 35 35 W 6 9 29.86 1011 10 16.0934 N/A
4:30 pm 16:30 Partly Cloudy 88 31 63 17 43 43 E 15 24 29.74 1007 10 16.0934 N/A
4:51 pm 16:51 Sunny 88 31.1 61 16.1 40 40 E 14 22 29.85 1011 10 16.0934 N/A
5:49 pm 17:49 Sunny with Nearby Thunderstorms 88 31 61 16 40 40 E 10 17 29.74 1007 10 16.0934 N/A
5:51 pm 17:51 Sunny with Nearby Thunderstorms 87 30.6 61 16.1 42 42 E 10 17 29.86 1011 10 16.0934 N/A
6:17 pm 18:17 Mostly Cloudy with Thunderstorms 78 25.6 64 17.8 62 62 W 23 37 29.83 1010 10 16.0934 N/A
6:51 pm 18:51 Mostly Cloudy with Thunderstorms 71 21.7 64 17.8 79 79 NNW 14 22 29.95 1014 4 6.43736 0.05 1.27
7:07 pm 19:07 Partly Cloudy with Nearby Thunderstorms 72 22.2 68 20 87 87 NNW 6 9 29.94 1014 2 3.21868 0.03 0.762
7:18 pm 19:18 Partly Cloudy with Nearby Thunderstorms 73 23 68 20 83 83 N 8 13 29.91 1013 10 16.0934 N/A
7:47 pm 19:47 Mostly Cloudy with Light Rain 73 23 68 20 83 83 N 6 9 29.91 1013 10 16.0934 0.04 1.016
7:51 pm 19:51 Mostly Cloudy with Light Rain 74 23.3 69 20.6 85 85 NNE 5 7 29.95 1014 10 16.0934 0.05 1.27
8:51 pm 20:51 Clear 72 22.2 69 20.6 91 91 NNW 8 13 29.98 1015 10 16.0934 0.03 0.762
9:51 pm 21:51 Mostly Cloudy 74 23.3 68 20 82 82 N N/A 29.97 1015 10 16.0934 N/A
10:51 pm 22:51 Clear 73 22.8 69 20.6 87 87 ESE 8 13 29.95 1014 10 16.0934 N/A
11:51 pm 23:51 Clear 73 22.8 69 20.6 87 87 SSW 8 13 29.95 1014 10 16.0934 N/A

Powered by AerisWeather